APJ272 ROAH-RJCC

Flight info

Callsign APJ272
Flight time 2h 42m
Altitude 39000
Route YUGAF AMAMI Y25 KANAH HKC Y45 MARCO Y141 SAMON Y14 GOLDO Y19 MRE Y13 SIRAO Y139 NAVER
Aircraft A20N/M-SDE2E3FGHIRWXY/LB1

Departure

Time 2026-04-25 04:13
Airport Naha International Airport (ROAH)

Arrival

Time 2026-04-25 06:56
Airport New Chitose Airport (RJCC)
Time Latitude Longitude Altitude Speed Heading
2026-04-25 03:34 26.21401 127.64879 31 ft 0 kts 87°
2026-04-25 04:02 26.21401 127.64878 31 ft 2 kts 87°
2026-04-25 04:02 26.21401 127.64864 31 ft 2 kts 94°
2026-04-25 04:03 26.21402 127.64851 31 ft 1 kts 107°
2026-04-25 04:03 26.21405 127.64844 31 ft 1 kts 131°
2026-04-25 04:03 26.21410 127.64839 31 ft 1 kts 160°
2026-04-25 04:03 26.21415 127.64838 31 ft 1 kts 184°
2026-04-25 04:04 26.21422 127.64839 31 ft 1 kts 200°
2026-04-25 04:04 26.21428 127.64842 31 ft 1 kts 208°
2026-04-25 04:04 26.21433 127.64845 31 ft 1 kts 213°
2026-04-25 04:04 26.21437 127.64849 31 ft 1 kts 216°
2026-04-25 04:05 26.21442 127.64852 31 ft 1 kts 218°
2026-04-25 04:05 26.21446 127.64856 31 ft 1 kts 220°
2026-04-25 04:05 26.21449 127.64859 31 ft 0 kts 220°
2026-04-25 04:06 26.21446 127.64857 31 ft 2 kts 220°
2026-04-25 04:06 26.21422 127.64833 31 ft 7 kts 223°
2026-04-25 04:07 26.21371 127.64779 31 ft 13 kts 223°
2026-04-25 04:07 26.21279 127.64740 31 ft 17 kts 178°
2026-04-25 04:07 26.21147 127.64747 31 ft 20 kts 177°
2026-04-25 04:07 26.21007 127.64742 31 ft 20 kts 200°
2026-04-25 04:08 26.20866 127.64733 31 ft 21 kts 177°
2026-04-25 04:08 26.20719 127.64741 31 ft 22 kts 177°
2026-04-25 04:08 26.20565 127.64748 31 ft 22 kts 177°
2026-04-25 04:08 26.20408 127.64755 31 ft 23 kts 178°
2026-04-25 04:09 26.20246 127.64763 31 ft 24 kts 176°
2026-04-25 04:09 26.20080 127.64770 31 ft 24 kts 178°
2026-04-25 04:09 26.19907 127.64779 31 ft 25 kts 177°
2026-04-25 04:09 26.19729 127.64788 31 ft 26 kts 178°
2026-04-25 04:10 26.19547 127.64795 31 ft 27 kts 178°
2026-04-25 04:10 26.19360 127.64804 31 ft 27 kts 177°
2026-04-25 04:10 26.19169 127.64812 32 ft 28 kts 177°
2026-04-25 04:10 26.18973 127.64822 32 ft 28 kts 178°
2026-04-25 04:11 26.18573 127.64841 32 ft 28 kts 177°
2026-04-25 04:11 26.18377 127.64850 32 ft 28 kts 177°
2026-04-25 04:11 26.18244 127.64790 31 ft 19 kts 266°
2026-04-25 04:12 26.18247 127.64676 29 ft 13 kts 294°
2026-04-25 04:12 26.18298 127.64647 29 ft 0 kts 356°
2026-04-25 04:12 26.18354 127.64643 30 ft 31 kts 357°
2026-04-25 04:12 26.18848 127.64621 32 ft 112 kts 358°
2026-04-25 04:13 26.19846 127.64572 365 ft 157 kts 357°
2026-04-25 04:13 26.20941 127.64443 1301 ft 159 kts 343°
2026-04-25 04:13 26.21910 127.63863 2182 ft 161 kts 323°
2026-04-25 04:13 26.22772 127.63043 2842 ft 167 kts 314°
2026-04-25 04:14 26.23535 127.62037 3426 ft 175 kts 299°
2026-04-25 04:14 26.24035 127.60732 3804 ft 192 kts 295°
2026-04-25 04:14 26.25063 127.59692 4014 ft 219 kts 337°
2026-04-25 04:14 26.26624 127.59223 4212 ft 243 kts 339°
2026-04-25 04:15 26.28246 127.58523 4516 ft 257 kts 336°
2026-04-25 04:15 26.29940 127.57814 4950 ft 263 kts 336°
2026-04-25 04:15 26.31687 127.57127 5381 ft 269 kts 337°
2026-04-25 04:15 26.33471 127.56460 5848 ft 273 kts 338°
2026-04-25 04:16 26.35285 127.55802 6348 ft 275 kts 338°
2026-04-25 04:16 26.37123 127.55145 6927 ft 280 kts 338°
2026-04-25 04:16 26.38989 127.54485 7765 ft 283 kts 338°
2026-04-25 04:16 26.40876 127.53821 8599 ft 286 kts 338°
2026-04-25 04:17 26.42846 127.53336 9425 ft 296 kts 349°
2026-04-25 04:17 26.44943 127.53439 10195 ft 310 kts
2026-04-25 04:17 26.47095 127.54126 10595 ft 334 kts 15°
2026-04-25 04:17 26.49334 127.55053 11021 ft 351 kts 17°
2026-04-25 04:18 26.51637 127.56040 11630 ft 359 kts 17°
2026-04-25 04:18 26.53963 127.57031 12298 ft 365 kts 16°
2026-04-25 04:18 26.56359 127.58042 13040 ft 370 kts 16°
2026-04-25 04:18 26.58781 127.59056 13781 ft 375 kts 15°
2026-04-25 04:19 26.61240 127.60082 14456 ft 379 kts 15°
2026-04-25 04:19 26.63725 127.61117 15126 ft 383 kts 15°
2026-04-25 04:19 26.66237 127.62162 15800 ft 387 kts 15°
2026-04-25 04:19 26.68772 127.63217 16450 ft 390 kts 15°
2026-04-25 04:20 26.71327 127.64279 17070 ft 395 kts 15°
2026-04-25 04:20 26.73920 127.65357 17693 ft 400 kts 15°
2026-04-25 04:20 26.76543 127.66449 18333 ft 405 kts 15°
2026-04-25 04:20 26.79201 127.67556 18848 ft 409 kts 15°
2026-04-25 04:21 26.81883 127.68673 19373 ft 413 kts 15°
2026-04-25 04:21 26.84582 127.69798 19884 ft 417 kts 15°
2026-04-25 04:21 26.87314 127.70937 20384 ft 421 kts 14°
2026-04-25 04:21 26.90072 127.72088 20885 ft 425 kts 14°
2026-04-25 04:22 26.92856 127.73250 21375 ft 429 kts 14°
2026-04-25 04:22 26.95659 127.74420 21868 ft 433 kts 14°
2026-04-25 04:22 26.98494 127.75605 22353 ft 437 kts 14°
2026-04-25 04:22 27.01355 127.76801 22834 ft 441 kts 14°
2026-04-25 04:23 27.04236 127.78006 23309 ft 444 kts 14°
2026-04-25 04:23 27.07149 127.79225 23741 ft 448 kts 14°
2026-04-25 04:23 27.10087 127.80456 24102 ft 453 kts 14°
2026-04-25 04:23 27.13050 127.81698 24477 ft 456 kts 14°
2026-04-25 04:24 27.16031 127.82975 24841 ft 462 kts 16°
2026-04-25 04:24 27.18926 127.84606 25200 ft 473 kts 26°
2026-04-25 04:24 27.21589 127.86842 25544 ft 483 kts 38°
2026-04-25 04:24 27.24019 127.89487 25881 ft 489 kts 42°
2026-04-25 04:25 27.26399 127.92237 26221 ft 492 kts 43°
2026-04-25 04:25 27.28779 127.95009 26556 ft 495 kts 43°
2026-04-25 04:25 27.31183 127.97804 26878 ft 498 kts 43°
2026-04-25 04:25 27.33605 128.00613 27205 ft 501 kts 43°
2026-04-25 04:26 27.36043 128.03439 27527 ft 505 kts 43°
2026-04-25 04:26 27.38497 128.06280 27835 ft 507 kts 43°
2026-04-25 04:26 27.40958 128.09131 28140 ft 510 kts 43°
2026-04-25 04:26 27.43440 128.12006 28443 ft 513 kts 43°
2026-04-25 04:27 27.45916 128.14920 28727 ft 517 kts 45°
2026-04-25 04:27 27.48234 128.18043 29024 ft 521 kts 49°
2026-04-25 04:27 27.50489 128.21259 29302 ft 524 kts 50°
2026-04-25 04:27 27.52736 128.24498 29586 ft 527 kts 50°
2026-04-25 04:28 27.54998 128.27765 29868 ft 530 kts 50°
2026-04-25 04:28 27.57273 128.31048 30151 ft 532 kts 50°
2026-04-25 04:28 27.59529 128.34302 30371 ft 535 kts 50°
2026-04-25 04:28 27.61850 128.37652 30599 ft 537 kts 50°
2026-04-25 04:29 27.64125 128.40937 30827 ft 539 kts 50°
2026-04-25 04:29 27.66440 128.44282 31017 ft 542 kts 50°
2026-04-25 04:29 27.68763 128.47640 31059 ft 543 kts 50°
2026-04-25 04:30 27.73400 128.54353 31059 ft 543 kts 50°
2026-04-25 04:30 27.78046 128.61088 31055 ft 543 kts 50°
2026-04-25 04:31 27.82682 128.67818 31074 ft 544 kts 50°
2026-04-25 04:31 27.85008 128.71198 31300 ft 546 kts 50°
2026-04-25 04:31 27.87330 128.74577 31634 ft 545 kts 50°
2026-04-25 04:31 27.89656 128.77962 31956 ft 545 kts 50°
2026-04-25 04:32 27.91981 128.81350 32253 ft 545 kts 50°
2026-04-25 04:32 27.94308 128.84743 32536 ft 546 kts 51°
2026-04-25 04:32 27.96630 128.88131 32812 ft 546 kts 51°
2026-04-25 04:32 27.98960 128.91533 33107 ft 547 kts 51°
2026-04-25 04:33 28.01292 128.94942 33384 ft 547 kts 51°
2026-04-25 04:33 28.03617 128.98342 33660 ft 548 kts 51°
2026-04-25 04:33 28.05930 129.01728 33929 ft 548 kts 51°
2026-04-25 04:33 28.08282 129.05174 34188 ft 548 kts 51°
2026-04-25 04:34 28.10606 129.08581 34436 ft 548 kts 51°
2026-04-25 04:34 28.12932 129.11994 34689 ft 547 kts 51°
2026-04-25 04:34 28.15257 129.15408 34938 ft 547 kts 51°
2026-04-25 04:34 28.17578 129.18820 35192 ft 546 kts 51°
2026-04-25 04:35 28.19898 129.22233 35413 ft 547 kts 51°
2026-04-25 04:35 28.22218 129.25648 35659 ft 546 kts 50°
2026-04-25 04:35 28.24528 129.29051 35900 ft 545 kts 51°
2026-04-25 04:35 28.26845 129.32466 36143 ft 544 kts 51°
2026-04-25 04:36 28.29147 129.35862 36376 ft 543 kts 50°
2026-04-25 04:36 28.31448 129.39260 36564 ft 543 kts 51°
2026-04-25 04:36 28.33744 129.42656 36761 ft 542 kts 51°
2026-04-25 04:36 28.36041 129.46054 36963 ft 542 kts 51°
2026-04-25 04:37 28.38331 129.49444 37152 ft 542 kts 51°
2026-04-25 04:37 28.40680 129.52791 37304 ft 541 kts 45°
2026-04-25 04:37 28.43413 129.55692 37425 ft 534 kts 31°
2026-04-25 04:37 28.46556 129.57836 37591 ft 521 kts 16°
2026-04-25 04:38 28.49917 129.59142 37766 ft 504 kts
2026-04-25 04:38 28.53338 129.59885 37953 ft 498 kts 359°
2026-04-25 04:38 28.56755 129.60468 38144 ft 495 kts 357°
2026-04-25 04:38 28.60164 129.60967 38348 ft 493 kts 356°
2026-04-25 04:39 28.63557 129.61435 38526 ft 492 kts 356°
2026-04-25 04:39 28.66956 129.61904 38693 ft 492 kts 356°
2026-04-25 04:39 28.70353 129.62386 38847 ft 491 kts 356°
2026-04-25 04:39 28.73743 129.62882 39000 ft 491 kts 356°
2026-04-25 04:40 28.77134 129.63388 39038 ft 491 kts 356°
2026-04-25 04:40 28.83891 129.64418 39042 ft 489 kts 356°
2026-04-25 04:41 28.90637 129.65454 39044 ft 489 kts 356°
2026-04-25 04:41 28.97371 129.66486 39048 ft 489 kts 356°
2026-04-25 04:42 29.02974 129.67346 39047 ft 488 kts 356°
2026-04-25 04:42 29.09703 129.68379 39045 ft 488 kts 356°
2026-04-25 04:43 29.16440 129.69996 39047 ft 500 kts
2026-04-25 04:43 29.23150 129.72186 39039 ft 503 kts
2026-04-25 04:44 29.29861 129.74494 39043 ft 503 kts
2026-04-25 04:44 29.36571 129.76808 39044 ft 503 kts
2026-04-25 04:45 29.43277 129.79106 39051 ft 503 kts
2026-04-25 04:45 29.49976 129.81395 39045 ft 502 kts
2026-04-25 04:46 29.56671 129.83683 39045 ft 502 kts
2026-04-25 04:46 29.63376 129.85979 39047 ft 503 kts
2026-04-25 04:47 29.70074 129.88276 39049 ft 503 kts
2026-04-25 04:47 29.76781 129.90579 39048 ft 503 kts
2026-04-25 04:48 29.83489 129.92887 39051 ft 503 kts
2026-04-25 04:48 29.90144 129.95179 39053 ft 503 kts
2026-04-25 04:49 29.96844 129.97491 39055 ft 502 kts
2026-04-25 04:49 30.03536 129.99802 39050 ft 503 kts
2026-04-25 04:50 30.10248 130.02122 39055 ft 504 kts
2026-04-25 04:50 30.16968 130.04450 39052 ft 504 kts
2026-04-25 04:51 30.23690 130.06782 39057 ft 504 kts
2026-04-25 04:51 30.30413 130.09118 39053 ft 505 kts
2026-04-25 04:52 30.37140 130.11458 39060 ft 505 kts
2026-04-25 04:52 30.43884 130.13807 39061 ft 506 kts
2026-04-25 04:53 30.50630 130.16160 39062 ft 507 kts
2026-04-25 04:53 30.57393 130.18523 39061 ft 508 kts
2026-04-25 04:54 30.64160 130.20892 39066 ft 508 kts
2026-04-25 04:54 30.70919 130.23261 39066 ft 508 kts
2026-04-25 04:55 30.77691 130.25637 39075 ft 508 kts
2026-04-25 04:55 30.84462 130.28016 39076 ft 509 kts
2026-04-25 04:56 30.91254 130.30406 39074 ft 510 kts
2026-04-25 04:56 30.98046 130.32800 39073 ft 511 kts
2026-04-25 04:57 31.04856 130.35204 39077 ft 511 kts
2026-04-25 04:57 31.11622 130.37597 39074 ft 512 kts
2026-04-25 04:58 31.18480 130.40025 39079 ft 512 kts
2026-04-25 04:58 31.25263 130.42430 39078 ft 513 kts
2026-04-25 04:59 31.32096 130.44856 39079 ft 514 kts
2026-04-25 04:59 31.38948 130.47293 39075 ft 515 kts
2026-04-25 05:00 31.45806 130.49739 39071 ft 515 kts
2026-04-25 05:00 31.52663 130.52187 39090 ft 516 kts
2026-04-25 05:01 31.59526 130.54638 39100 ft 516 kts
2026-04-25 05:01 31.66408 130.57100 39098 ft 517 kts
2026-04-25 05:01 31.69801 130.58654 39101 ft 534 kts 17°
2026-04-25 05:02 31.73092 130.60749 39110 ft 540 kts 20°
2026-04-25 05:02 31.79580 130.65312 39108 ft 545 kts 22°
2026-04-25 05:03 31.86017 130.70063 39105 ft 547 kts 23°
2026-04-25 05:03 31.92452 130.74819 39106 ft 546 kts 23°
2026-04-25 05:04 31.98912 130.79559 39104 ft 547 kts 22°
2026-04-25 05:04 32.05371 130.84290 39111 ft 547 kts 22°
2026-04-25 05:05 32.11842 130.89034 39109 ft 547 kts 22°
2026-04-25 05:05 32.18317 130.93739 39115 ft 547 kts 21°
2026-04-25 05:06 32.24812 130.98416 39113 ft 547 kts 22°
2026-04-25 05:06 32.31312 131.03101 39117 ft 548 kts 22°
2026-04-25 05:07 32.37824 131.07813 39119 ft 549 kts 22°
2026-04-25 05:07 32.44319 131.12553 39111 ft 549 kts 22°
2026-04-25 05:08 32.50802 131.17371 39109 ft 550 kts 23°
2026-04-25 05:08 32.57275 131.22202 39127 ft 551 kts 23°
2026-04-25 05:09 32.63762 131.27044 39115 ft 550 kts 23°
2026-04-25 05:09 32.70235 131.31881 39135 ft 551 kts 23°
2026-04-25 05:10 32.76687 131.36704 39127 ft 552 kts 23°
2026-04-25 05:10 32.83222 131.41587 39129 ft 551 kts 22°
2026-04-25 05:11 32.89700 131.46370 39125 ft 551 kts 22°
2026-04-25 05:11 32.96263 131.51204 39124 ft 552 kts 22°
2026-04-25 05:12 33.06010 131.58410 39137 ft 552 kts 22°
2026-04-25 05:12 33.12569 131.63275 39132 ft 552 kts 22°
2026-04-25 05:13 33.19046 131.68089 39138 ft 552 kts 22°
2026-04-25 05:13 33.22360 131.70317 39133 ft 537 kts 12°
2026-04-25 05:13 33.25818 131.72138 39132 ft 536 kts 12°
2026-04-25 05:14 33.32591 131.75718 39137 ft 536 kts 12°
2026-04-25 05:15 33.42898 131.81036 39137 ft 535 kts 11°
2026-04-25 05:15 33.49697 131.84530 39140 ft 535 kts 11°
2026-04-25 05:16 33.56528 131.88049 39134 ft 535 kts 11°
2026-04-25 05:16 33.63364 131.91580 39137 ft 534 kts 11°
2026-04-25 05:17 33.70196 131.95116 39142 ft 534 kts 11°
2026-04-25 05:17 33.77014 131.98652 39150 ft 534 kts 11°
2026-04-25 05:18 33.83833 132.02184 39146 ft 534 kts 11°
2026-04-25 05:18 33.90658 132.05719 39145 ft 533 kts 11°
2026-04-25 05:19 33.97461 132.09252 39145 ft 533 kts 11°
2026-04-25 05:19 34.04258 132.12795 39153 ft 533 kts 12°
2026-04-25 05:19 34.07582 132.14899 39116 ft 549 kts 25°
2026-04-25 05:20 34.10675 132.17669 39140 ft 556 kts 30°
2026-04-25 05:20 34.16633 132.23675 39149 ft 560 kts 34°
2026-04-25 05:21 34.22422 132.29851 39148 ft 560 kts 34°
2026-04-25 05:21 34.28299 132.36144 39151 ft 559 kts 34°
2026-04-25 05:22 34.34103 132.42317 39146 ft 559 kts 34°
2026-04-25 05:22 34.39943 132.48510 39150 ft 558 kts 34°
2026-04-25 05:23 34.45783 132.54709 39137 ft 558 kts 34°
2026-04-25 05:23 34.51608 132.60904 39141 ft 557 kts 35°
2026-04-25 05:24 34.57431 132.67115 39135 ft 557 kts 35°
2026-04-25 05:24 34.63243 132.73326 39133 ft 556 kts 35°
2026-04-25 05:25 34.69051 132.79545 39124 ft 556 kts 35°
2026-04-25 05:25 34.74846 132.85758 39130 ft 556 kts 35°
2026-04-25 05:26 34.80643 132.91987 39141 ft 556 kts 35°
2026-04-25 05:26 34.86433 132.98223 39135 ft 555 kts 35°
2026-04-25 05:27 34.92211 133.04457 39141 ft 555 kts 35°
2026-04-25 05:27 34.97995 133.10706 39140 ft 555 kts 35°
2026-04-25 05:28 35.03767 133.16952 39142 ft 555 kts 35°
2026-04-25 05:28 35.09540 133.23213 39137 ft 555 kts 35°
2026-04-25 05:29 35.14326 133.28414 39141 ft 555 kts 36°
2026-04-25 05:29 35.20092 133.34690 39143 ft 554 kts 35°
2026-04-25 05:30 35.25845 133.40965 39153 ft 554 kts 36°
2026-04-25 05:30 35.31557 133.47206 39149 ft 554 kts 36°
2026-04-25 05:31 35.37340 133.53538 39164 ft 554 kts 36°
2026-04-25 05:31 35.43075 133.59833 39158 ft 552 kts 36°
2026-04-25 05:32 35.48792 133.66118 39157 ft 552 kts 36°
2026-04-25 05:32 35.54513 133.72417 39160 ft 553 kts 36°
2026-04-25 05:33 35.60242 133.78740 39165 ft 553 kts 36°
2026-04-25 05:33 35.65925 133.85026 39162 ft 553 kts 36°
2026-04-25 05:34 35.71675 133.91398 39158 ft 553 kts 36°
2026-04-25 05:34 35.77352 133.97702 39165 ft 553 kts 36°
2026-04-25 05:35 35.83054 134.04046 39169 ft 553 kts 36°
2026-04-25 05:35 35.88753 134.10401 39174 ft 552 kts 36°
2026-04-25 05:36 35.94447 134.16762 39175 ft 552 kts 36°
2026-04-25 05:36 36.00126 134.23119 39174 ft 551 kts 36°
2026-04-25 05:37 36.05806 134.29491 39177 ft 551 kts 36°
2026-04-25 05:37 36.11479 134.35867 39185 ft 551 kts 36°
2026-04-25 05:38 36.17135 134.42238 39186 ft 550 kts 36°
2026-04-25 05:38 36.22759 134.48665 39179 ft 553 kts 42°
2026-04-25 05:38 36.25154 134.52405 39186 ft 558 kts 53°
2026-04-25 05:39 36.27323 134.56393 39183 ft 558 kts 54°
2026-04-25 05:39 36.31442 134.64577 39184 ft 560 kts 57°
2026-04-25 05:40 36.35455 134.72853 39182 ft 560 kts 57°
2026-04-25 05:40 36.39450 134.81084 39185 ft 560 kts 57°
2026-04-25 05:41 36.43486 134.89353 39188 ft 560 kts 57°
2026-04-25 05:41 36.47533 134.97639 39190 ft 561 kts 57°
2026-04-25 05:42 36.51574 135.05929 39193 ft 561 kts 57°
2026-04-25 05:42 36.55612 135.14237 39196 ft 561 kts 57°
2026-04-25 05:43 36.59632 135.22533 39196 ft 560 kts 57°
2026-04-25 05:43 36.63647 135.30835 39191 ft 559 kts 57°
2026-04-25 05:44 36.67648 135.39132 39193 ft 559 kts 57°
2026-04-25 05:44 36.71648 135.47447 39189 ft 559 kts 57°
2026-04-25 05:45 36.75646 135.55777 39189 ft 560 kts 57°
2026-04-25 05:45 36.79635 135.64109 39191 ft 560 kts 57°
2026-04-25 05:46 36.83625 135.72464 39190 ft 560 kts 57°
2026-04-25 05:46 36.87608 135.80827 39190 ft 560 kts 57°
2026-04-25 05:47 36.91575 135.89178 39189 ft 559 kts 57°
2026-04-25 05:47 36.95537 135.97538 39190 ft 558 kts 57°
2026-04-25 05:48 36.99485 136.05890 39193 ft 558 kts 57°
2026-04-25 05:48 37.03433 136.14260 39187 ft 558 kts 57°
2026-04-25 05:49 37.07369 136.22629 39184 ft 558 kts 57°
2026-04-25 05:49 37.11307 136.31023 39184 ft 558 kts 57°
2026-04-25 05:50 37.15238 136.39422 39182 ft 559 kts 57°
2026-04-25 05:50 37.19157 136.47818 39189 ft 558 kts 57°
2026-04-25 05:51 37.23075 136.56235 39187 ft 558 kts 57°
2026-04-25 05:51 37.26980 136.64644 39185 ft 557 kts 57°
2026-04-25 05:52 37.30873 136.73047 39183 ft 557 kts 57°
2026-04-25 05:52 37.34762 136.81462 39180 ft 556 kts 57°
2026-04-25 05:53 37.38640 136.89877 39182 ft 556 kts 57°
2026-04-25 05:53 37.42513 136.98304 39187 ft 556 kts 57°
2026-04-25 05:54 37.46376 137.06731 39188 ft 556 kts 57°
2026-04-25 05:54 37.52138 137.19340 39188 ft 556 kts 57°
2026-04-25 05:55 37.55987 137.27789 39189 ft 555 kts 57°
2026-04-25 05:55 37.59828 137.36244 39189 ft 555 kts 57°
2026-04-25 05:56 37.63654 137.44688 39192 ft 555 kts 57°
2026-04-25 05:56 37.67480 137.53153 39192 ft 554 kts 57°
2026-04-25 05:57 37.71290 137.61605 39191 ft 554 kts 57°
2026-04-25 05:57 37.75095 137.70067 39190 ft 554 kts 57°
2026-04-25 05:58 37.78892 137.78535 39189 ft 553 kts 57°
2026-04-25 05:58 37.82680 137.87003 39186 ft 553 kts 57°
2026-04-25 05:59 37.86457 137.95470 39182 ft 553 kts 57°
2026-04-25 05:59 37.90234 138.03958 39188 ft 553 kts 57°
2026-04-25 06:00 37.94002 138.12451 39186 ft 553 kts 57°
2026-04-25 06:00 37.97760 138.20941 39185 ft 552 kts 57°
2026-04-25 06:01 38.01503 138.29421 39192 ft 551 kts 57°
2026-04-25 06:01 38.05358 138.37796 39185 ft 545 kts 47°
2026-04-25 06:02 38.07826 138.41352 39188 ft 531 kts 33°
2026-04-25 06:02 38.10676 138.44235 39194 ft 521 kts 26°
2026-04-25 06:02 38.16628 138.49387 39190 ft 515 kts 22°
2026-04-25 06:03 38.22660 138.54256 39189 ft 513 kts 22°
2026-04-25 06:03 38.28688 138.59123 39190 ft 513 kts 22°
2026-04-25 06:04 38.34682 138.64028 39201 ft 512 kts 23°
2026-04-25 06:04 38.40663 138.68962 39202 ft 511 kts 23°
2026-04-25 06:05 38.46590 138.73866 39199 ft 510 kts 23°
2026-04-25 06:05 38.52576 138.78827 39200 ft 509 kts 23°
2026-04-25 06:06 38.58472 138.83723 39205 ft 508 kts 23°
2026-04-25 06:06 38.64396 138.88650 39201 ft 507 kts 23°
2026-04-25 06:07 38.70299 138.93569 39202 ft 506 kts 23°
2026-04-25 06:07 38.76199 138.98496 39204 ft 506 kts 23°
2026-04-25 06:08 38.82084 139.03419 39206 ft 505 kts 23°
2026-04-25 06:08 38.87968 139.08353 39210 ft 505 kts 24°
2026-04-25 06:09 38.93836 139.13283 39211 ft 504 kts 24°
2026-04-25 06:09 38.99702 139.18221 39209 ft 503 kts 24°
2026-04-25 06:10 39.05552 139.23156 39213 ft 503 kts 24°
2026-04-25 06:10 39.11400 139.28099 39211 ft 502 kts 24°
2026-04-25 06:11 39.17239 139.33044 39216 ft 502 kts 24°
2026-04-25 06:11 39.23062 139.37986 39212 ft 501 kts 24°
2026-04-25 06:12 39.28886 139.42938 39209 ft 501 kts 24°
2026-04-25 06:12 39.34695 139.47888 39208 ft 500 kts 24°
2026-04-25 06:13 39.40504 139.52847 39211 ft 500 kts 24°
2026-04-25 06:14 39.49153 139.60251 39216 ft 498 kts 24°
2026-04-25 06:14 39.54925 139.65204 39217 ft 498 kts 24°
2026-04-25 06:15 39.60690 139.70162 39216 ft 497 kts 24°
2026-04-25 06:15 39.66447 139.75122 39214 ft 496 kts 24°
2026-04-25 06:16 39.72194 139.80083 39211 ft 496 kts 24°
2026-04-25 06:16 39.77930 139.85045 39216 ft 495 kts 25°
2026-04-25 06:17 39.82691 139.89180 39211 ft 495 kts 25°
2026-04-25 06:17 39.88430 139.94215 39216 ft 494 kts 25°
2026-04-25 06:18 39.94111 139.99222 39217 ft 493 kts 25°
2026-04-25 06:18 39.99746 140.04196 39206 ft 492 kts 25°
2026-04-25 06:19 40.05408 140.09200 39193 ft 491 kts 25°
2026-04-25 06:19 40.11056 140.14200 39177 ft 490 kts 25°
2026-04-25 06:20 40.16695 140.19201 39165 ft 489 kts 25°
2026-04-25 06:20 40.22317 140.24199 39163 ft 489 kts 26°
2026-04-25 06:21 40.27941 140.29209 39161 ft 488 kts 26°
2026-04-25 06:21 40.33550 140.34216 39167 ft 487 kts 26°
2026-04-25 06:22 40.39149 140.39224 39180 ft 487 kts 26°
2026-04-25 06:22 40.44743 140.44239 39187 ft 487 kts 26°
2026-04-25 06:23 40.50322 140.49251 39193 ft 485 kts 26°
2026-04-25 06:23 40.55888 140.54261 39193 ft 485 kts 26°
2026-04-25 06:24 40.61444 140.59269 39189 ft 484 kts 26°
2026-04-25 06:24 40.67000 140.64289 39185 ft 484 kts 26°
2026-04-25 06:25 40.72573 140.69246 39184 ft 478 kts 21°
2026-04-25 06:25 40.78526 140.72797 39187 ft 466 kts 12°
2026-04-25 06:26 40.84541 140.75815 39190 ft 465 kts 11°
2026-04-25 06:26 40.90650 140.78766 39203 ft 464 kts 11°
2026-04-25 06:27 40.96665 140.81703 39210 ft 464 kts 11°
2026-04-25 06:27 41.02709 140.84689 39218 ft 463 kts 11°
2026-04-25 06:28 41.08746 140.87687 39225 ft 463 kts 11°
2026-04-25 06:28 41.14773 140.90687 39231 ft 463 kts 11°
2026-04-25 06:29 41.20799 140.93691 39233 ft 463 kts 11°
2026-04-25 06:29 41.26825 140.96701 39230 ft 462 kts 12°
2026-04-25 06:30 41.32843 140.99704 39228 ft 461 kts 11°
2026-04-25 06:30 41.38862 141.02666 39237 ft 461 kts 11°
2026-04-25 06:31 41.44872 141.05618 39236 ft 460 kts 11°
2026-04-25 06:31 41.50879 141.08575 39235 ft 461 kts 11°
2026-04-25 06:32 41.56893 141.11546 38978 ft 460 kts 11°
2026-04-25 06:32 41.59896 141.13034 38723 ft 460 kts 12°
2026-04-25 06:32 41.62891 141.14519 38450 ft 459 kts 12°
2026-04-25 06:32 41.65886 141.16006 38174 ft 458 kts 12°
2026-04-25 06:33 41.68868 141.17490 37908 ft 458 kts 12°
2026-04-25 06:33 41.71851 141.18988 37644 ft 457 kts 12°
2026-04-25 06:33 41.74819 141.20488 37385 ft 456 kts 12°
2026-04-25 06:33 41.77783 141.21991 37125 ft 455 kts 12°
2026-04-25 06:34 41.80728 141.23487 36593 ft 453 kts 13°
2026-04-25 06:34 41.83685 141.24986 35837 ft 456 kts 13°
2026-04-25 06:34 41.86667 141.26494 34995 ft 461 kts 13°
2026-04-25 06:34 41.89690 141.28025 34149 ft 466 kts 13°
2026-04-25 06:35 41.92717 141.29564 33554 ft 462 kts 14°
2026-04-25 06:35 41.95611 141.31378 33283 ft 459 kts 24°
2026-04-25 06:35 41.98220 141.33854 32791 ft 462 kts 33°
2026-04-25 06:35 42.00617 141.36725 32237 ft 461 kts 36°
2026-04-25 06:36 42.02945 141.39670 31725 ft 456 kts 37°
2026-04-25 06:36 42.05227 141.42596 31230 ft 452 kts 37°
2026-04-25 06:36 42.07487 141.45501 30730 ft 447 kts 37°
2026-04-25 06:36 42.09721 141.48376 30237 ft 442 kts 37°
2026-04-25 06:37 42.11932 141.51219 29643 ft 437 kts 36°
2026-04-25 06:37 42.14241 141.53815 29010 ft 429 kts 31°
2026-04-25 06:37 42.16614 141.56232 28398 ft 425 kts 30°
2026-04-25 06:37 42.18984 141.58605 27803 ft 422 kts 30°
2026-04-25 06:38 42.21334 141.60957 27227 ft 420 kts 30°
2026-04-25 06:38 42.23640 141.63270 26668 ft 417 kts 30°
2026-04-25 06:38 42.25958 141.65601 26118 ft 415 kts 30°
2026-04-25 06:38 42.28263 141.67922 25571 ft 412 kts 30°
2026-04-25 06:39 42.30552 141.70231 25038 ft 410 kts 31°
2026-04-25 06:39 42.32861 141.72563 24506 ft 408 kts 31°
2026-04-25 06:39 42.35124 141.74851 23996 ft 406 kts 31°
2026-04-25 06:39 42.37351 141.77104 23424 ft 404 kts 31°
2026-04-25 06:40 42.39594 141.79377 22850 ft 401 kts 31°
2026-04-25 06:40 42.41813 141.81628 22302 ft 398 kts 31°
2026-04-25 06:40 42.44019 141.83867 21758 ft 395 kts 31°
2026-04-25 06:40 42.46210 141.86094 21215 ft 392 kts 31°
2026-04-25 06:41 42.48383 141.88303 20684 ft 389 kts 31°
2026-04-25 06:41 42.50537 141.90496 20146 ft 386 kts 31°
2026-04-25 06:41 42.52680 141.92678 19616 ft 384 kts 31°
2026-04-25 06:41 42.54940 141.94488 19073 ft 371 kts 14°
2026-04-25 06:42 42.57406 141.95071 18543 ft 354 kts 352°
2026-04-25 06:42 42.59827 141.94736 17959 ft 347 kts 345°
2026-04-25 06:42 42.62193 141.94210 17368 ft 341 kts 344°
2026-04-25 06:42 42.64515 141.93673 16553 ft 337 kts 344°
2026-04-25 06:43 42.66767 141.93157 15742 ft 334 kts 345°
2026-04-25 06:43 42.69026 141.92650 14970 ft 330 kts 345°
2026-04-25 06:43 42.71293 141.92146 14197 ft 327 kts 345°
2026-04-25 06:43 42.73523 141.91654 13368 ft 323 kts 345°
2026-04-25 06:44 42.75726 141.91170 12641 ft 317 kts 345°
2026-04-25 06:44 42.77856 141.90708 12248 ft 302 kts 345°
2026-04-25 06:44 42.79883 141.90270 11791 ft 290 kts 345°
2026-04-25 06:44 42.81869 141.89833 11129 ft 288 kts 345°
2026-04-25 06:45 42.83849 141.89395 10447 ft 288 kts 345°
2026-04-25 06:45 42.85825 141.88960 9749 ft 287 kts 345°
2026-04-25 06:45 42.87790 141.88526 9154 ft 285 kts 346°
2026-04-25 06:45 42.89735 141.88098 8712 ft 282 kts 346°
2026-04-25 06:46 42.91671 141.87672 8239 ft 282 kts 346°
2026-04-25 06:46 42.93609 141.87245 7749 ft 282 kts 346°
2026-04-25 06:46 42.95541 141.86821 7371 ft 279 kts 346°
2026-04-25 06:46 42.97437 141.86409 6983 ft 276 kts 346°
2026-04-25 06:47 42.99341 141.85989 6467 ft 277 kts 347°
2026-04-25 06:47 43.01227 141.85572 6126 ft 272 kts 347°
2026-04-25 06:47 43.03084 141.85164 5725 ft 269 kts 346°
2026-04-25 06:47 43.04899 141.84569 5274 ft 266 kts 334°
2026-04-25 06:48 43.06387 141.83230 5121 ft 250 kts 310°
2026-04-25 06:48 43.07267 141.81293 5012 ft 234 kts 287°
2026-04-25 06:48 43.07482 141.79155 4902 ft 223 kts 265°
2026-04-25 06:48 43.07098 141.77160 4763 ft 214 kts 244°
2026-04-25 06:49 43.06294 141.75488 4622 ft 208 kts 233°
2026-04-25 06:49 43.05372 141.73993 4406 ft 205 kts 226°
2026-04-25 06:49 43.04271 141.72763 4136 ft 205 kts 216°
2026-04-25 06:49 43.03084 141.71679 3921 ft 205 kts 214°
2026-04-25 06:50 43.01906 141.70640 3713 ft 204 kts 214°
2026-04-25 06:50 43.00709 141.69581 3498 ft 201 kts 214°
2026-04-25 06:50 42.99542 141.68541 3274 ft 200 kts 213°
2026-04-25 06:50 42.98391 141.67539 3139 ft 197 kts 210°
2026-04-25 06:51 42.97162 141.66761 3029 ft 192 kts 198°
2026-04-25 06:51 42.95906 141.66381 3030 ft 181 kts 187°
2026-04-25 06:51 42.94641 141.66410 2992 ft 179 kts 178°
2026-04-25 06:51 42.93404 141.66614 2997 ft 179 kts 176°
2026-04-25 06:52 42.92167 141.66831 2862 ft 179 kts 177°
2026-04-25 06:52 42.90962 141.67041 2597 ft 172 kts 177°
2026-04-25 06:52 42.89815 141.67242 2323 ft 160 kts 175°
2026-04-25 06:52 42.88758 141.67428 2158 ft 147 kts 175°
2026-04-25 06:53 42.87781 141.67601 1916 ft 135 kts 175°
2026-04-25 06:53 42.86870 141.67759 1750 ft 131 kts 174°
2026-04-25 06:53 42.85972 141.67921 1537 ft 129 kts 174°
2026-04-25 06:53 42.85083 141.68081 1367 ft 129 kts 174°
2026-04-25 06:54 42.84189 141.68236 1175 ft 130 kts 173°
2026-04-25 06:54 42.83298 141.68393 999 ft 129 kts 172°
2026-04-25 06:54 42.82413 141.68551 809 ft 127 kts 171°
2026-04-25 06:54 42.81537 141.68706 640 ft 127 kts 173°
2026-04-25 06:55 42.80659 141.68861 467 ft 127 kts 173°
2026-04-25 06:55 42.79782 141.69015 308 ft 127 kts 172°
2026-04-25 06:55 42.78915 141.69167 123 ft 124 kts 172°
2026-04-25 06:55 42.78127 141.69306 86 ft 94 kts 173°
2026-04-25 06:56 42.77661 141.69387 84 ft 42 kts 172°
2026-04-25 06:56 42.77431 141.69416 86 ft 31 kts 182°
2026-04-25 06:56 42.77222 141.69345 86 ft 31 kts 203°
2026-04-25 06:56 42.77072 141.69245 86 ft 3 kts 263°
2026-04-25 06:57 42.77076 141.69200 87 ft 7 kts 270°
2026-04-25 06:57 42.77069 141.69105 88 ft 14 kts 264°
2026-04-25 06:57 42.77072 141.68938 84 ft 21 kts 299°
2026-04-25 06:57 42.77223 141.68869 83 ft 27 kts 352°
2026-04-25 06:58 42.77411 141.68836 83 ft 27 kts 352°
2026-04-25 06:58 42.77532 141.68686 84 ft 25 kts 296°
2026-04-25 06:58 42.77665 141.68605 85 ft 20 kts 355°
2026-04-25 06:58 42.77802 141.68582 86 ft 20 kts 353°
2026-04-25 06:59 42.77936 141.68558 86 ft 20 kts 353°
2026-04-25 06:59 42.78072 141.68529 82 ft 20 kts 345°
2026-04-25 06:59 42.78192 141.68444 85 ft 19 kts 323°
2026-04-25 06:59 42.78274 141.68320 85 ft 14 kts 273°
2026-04-25 07:00 42.78231 141.68265 85 ft 7 kts 210°
2026-04-25 07:00 42.78198 141.68235 82 ft 0 kts 215°